When you browse on this site, cookies collect data to enhance your experience and personalize the content and advertising you see.
Visit our Privacy Policy to learn more. By continuing to use the site, you agree to this use of cookies and data.
  • In United Kingdom
  • List of Countries
  • For 7 days
  • Water Temperature
  • Satellite Maps
  • Weather Map
  • Weather Widgets
  • user-avatar
    Login

    Hourly Weather Midlothian

    Today, 24 April, Wednesday

    Time Temperature Precipitation Wind Pressure Humidity
    00:00 +4°C° 0 mm 3 mps 726 mmHg 98%
    01:00 +4°C° 0 mm 3 mps 725 mmHg 98%
    02:00 +4°C° 0 mm 3 mps 725 mmHg 98%
    03:00 +4°C° 0 mm 3 mps 725 mmHg 98%
    04:00 +4°C° 0 mm 4 mps 724 mmHg 97%
    05:00 +5°C° 0 mm 4 mps 724 mmHg 97%
    06:00 +7°C° 0 mm 3 mps 724 mmHg 96%
    07:00 +6°C° 0.1 mm 4 mps 724 mmHg 95%
    08:00 +7°C° 0.1 mm 5 mps 723 mmHg 94%
    09:00 +7°C° 0.1 mm 6 mps 723 mmHg 94%
    10:00 +8°C° 0 mm 6 mps 723 mmHg 92%
    11:00 +8°C° 0 mm 6 mps 723 mmHg 91%
    12:00 +9°C° 0 mm 7 mps 723 mmHg 90%
    13:00 +9°C° 0 mm 6 mps 722 mmHg 90%
    14:00 +8°C° 0 mm 6 mps 722 mmHg 91%
    15:00 +8°C° 0 mm 6 mps 722 mmHg 91%
    16:00 +8°C° 0 mm 6 mps 721 mmHg 92%
    17:00 +8°C° 0 mm 5 mps 721 mmHg 92%
    18:00 +8°C° 0 mm 5 mps 721 mmHg 92%
    19:00 +8°C° 0 mm 5 mps 721 mmHg 94%
    20:00 +8°C° 0 mm 4 mps 721 mmHg 95%
    21:00 +8°C° 0 mm 4 mps 721 mmHg 97%
    22:00 +8°C° 0 mm 4 mps 721 mmHg 95%
    23:00 +8°C° 0 mm 4 mps 721 mmHg 93%

    Tomorrow, 25 April, Thursday

    Time Temperature Precipitation Wind Pressure Humidity
    00:00 +9°C° 0 mm 3 mps 722 mmHg 91%
    01:00 +8°C° 0 mm 3 mps 722 mmHg 92%
    02:00 +7°C° 0 mm 3 mps 722 mmHg 94%
    03:00 +6°C° 0 mm 2 mps 722 mmHg 95%
    04:00 +6°C° 0 mm 2 mps 723 mmHg 95%
    05:00 +6°C° 0 mm 2 mps 723 mmHg 95%
    06:00 +6°C° 0 mm 2 mps 723 mmHg 95%
    07:00 +8°C° 0 mm 3 mps 723 mmHg 88%
    08:00 +8°C° 0 mm 4 mps 724 mmHg 80%
    09:00 +10°C° 0 mm 5 mps 724 mmHg 73%
    10:00 +10°C° 0.1 mm 5 mps 724 mmHg 76%
    11:00 +10°C° 0.1 mm 6 mps 724 mmHg 79%
    12:00 +10°C° 0.1 mm 6 mps 724 mmHg 82%
    13:00 +10°C° 0.1 mm 6 mps 724 mmHg 79%
    14:00 +12°C° 0.1 mm 5 mps 724 mmHg 77%
    15:00 +12°C° 0.1 mm 5 mps 724 mmHg 74%
    16:00 +11°C° 1.4 mm 4 mps 724 mmHg 81%
    17:00 +10°C° 1.4 mm 3 mps 724 mmHg 88%
    18:00 +9°C° 1.4 mm 3 mps 724 mmHg 95%
    19:00 +7°C° 3.3 mm 4 mps 724 mmHg 94%
    20:00 +7°C° 3.3 mm 5 mps 725 mmHg 93%
    21:00 +5°C° 3.3 mm 6 mps 725 mmHg 93%
    22:00 +6°C° 0.2 mm 5 mps 725 mmHg 92%
    23:00 +5°C° 0.2 mm 4 mps 725 mmHg 92%

    Day after tomorrow, 26 April, Friday

    Time Temperature Precipitation Wind Pressure Humidity
    00:00 +5°C° 0.2 mm 3 mps 726 mmHg 92%
    01:00 +4°C° 0 mm 3 mps 726 mmHg 92%
    02:00 +4°C° 0 mm 4 mps 726 mmHg 92%
    03:00 +3°C° 0 mm 4 mps 727 mmHg 92%
    04:00 +3°C° 0.4 mm 5 mps 727 mmHg 92%
    05:00 +3°C° 0.4 mm 5 mps 727 mmHg 92%
    06:00 +3°C° 0.4 mm 6 mps 727 mmHg 92%
    07:00 +4°C° 0.3 mm 6 mps 727 mmHg 90%
    08:00 +7°C° 0.3 mm 5 mps 727 mmHg 87%
    09:00 +8°C° 0.3 mm 5 mps 727 mmHg 84%
    10:00 +9°C° 0.1 mm 5 mps 727 mmHg 80%
    11:00 +10°C° 0.1 mm 5 mps 727 mmHg 76%
    12:00 +10°C° 0.1 mm 5 mps 727 mmHg 71%
    13:00 +10°C° 0.4 mm 5 mps 727 mmHg 76%
    14:00 +9°C° 0.4 mm 5 mps 727 mmHg 81%
    15:00 +8°C° 0.4 mm 4 mps 726 mmHg 86%
    16:00 +8°C° 0.1 mm 4 mps 726 mmHg 86%
    17:00 +9°C° 0.1 mm 3 mps 726 mmHg 86%
    18:00 +10°C° 0.1 mm 3 mps 726 mmHg 86%
    19:00 +9°C° 0.2 mm 3 mps 727 mmHg 87%
    20:00 +7°C° 0.2 mm 4 mps 727 mmHg 89%
    21:00 +6°C° 0.2 mm 5 mps 727 mmHg 91%
    22:00 +5°C° 0 mm 4 mps 727 mmHg 92%
    23:00 +4°C° 0 mm 3 mps 727 mmHg 93%

    27 April, Saturday

    Time Temperature Precipitation Wind Pressure Humidity
    00:00 +4°C° 0 mm 2 mps 728 mmHg 94%
    01:00 +4°C° 0 mm 2 mps 728 mmHg 94%
    02:00 +3°C° 0 mm 2 mps 728 mmHg 94%
    03:00 +3°C° 0 mm 2 mps 728 mmHg 94%
    04:00 +3°C° 0 mm 2 mps 729 mmHg 93%
    05:00 +4°C° 0 mm 2 mps 729 mmHg 93%
    06:00 +4°C° 0 mm 2 mps 730 mmHg 92%
    07:00 +5°C° 0 mm 3 mps 731 mmHg 86%
    08:00 +7°C° 0 mm 4 mps 731 mmHg 80%
    09:00 +8°C° 0 mm 5 mps 732 mmHg 74%
    10:00 +9°C° 0 mm 6 mps 733 mmHg 73%
    11:00 +9°C° 0 mm 7 mps 734 mmHg 72%
    12:00 +9°C° 0 mm 7 mps 734 mmHg 71%
    13:00 +9°C° 0 mm 8 mps 735 mmHg 69%
    14:00 +7°C° 0 mm 8 mps 736 mmHg 68%
    15:00 +7°C° 0 mm 8 mps 736 mmHg 66%
    16:00 +7°C° 0 mm 8 mps 737 mmHg 65%
    17:00 +6°C° 0 mm 7 mps 738 mmHg 64%
    18:00 +7°C° 0 mm 6 mps 738 mmHg 63%
    19:00 +4°C° 0 mm 6 mps 739 mmHg 65%
    20:00 +3°C° 0 mm 5 mps 739 mmHg 67%
    21:00 +3°C° 0 mm 4 mps 740 mmHg 69%
    22:00 +1°C° 0 mm 4 mps 740 mmHg 74%
    23:00 +1°C° 0 mm 4 mps 741 mmHg 78%

    28 April, Sunday

    Time Temperature Precipitation Wind Pressure Humidity
    00:00 +1°C° 0 mm 3 mps 741 mmHg 82%
    01:00 +1°C° 0 mm 3 mps 741 mmHg 85%
    02:00 +1°C° 0 mm 3 mps 741 mmHg 87%
    03:00 +1°C° 0 mm 3 mps 741 mmHg 90%
    04:00 +2°C° 0 mm 3 mps 742 mmHg 89%
    05:00 +2°C° 0 mm 3 mps 742 mmHg 88%
    06:00 +3°C° 0 mm 3 mps 742 mmHg 87%
    07:00 +4°C° 0.2 mm 2 mps 742 mmHg 86%
    08:00 +5°C° 0.2 mm 2 mps 742 mmHg 85%
    09:00 +6°C° 0.2 mm 2 mps 742 mmHg 84%
    10:00 +6°C° 0.2 mm 2 mps 742 mmHg 85%
    11:00 +6°C° 0.2 mm 2 mps 742 mmHg 87%
    12:00 +6°C° 0.2 mm 2 mps 742 mmHg 88%
    13:00 +7°C° 0.1 mm 2 mps 742 mmHg 87%
    14:00 +7°C° 0.1 mm 2 mps 742 mmHg 86%
    15:00 +8°C° 0.1 mm 2 mps 742 mmHg 86%
    16:00 +8°C° 0.1 mm 2 mps 742 mmHg 87%
    17:00 +8°C° 0.1 mm 2 mps 742 mmHg 89%
    18:00 +8°C° 0.1 mm 2 mps 742 mmHg 90%
    19:00 +7°C° 0 mm 2 mps 742 mmHg 92%
    20:00 +7°C° 0 mm 2 mps 742 mmHg 94%
    21:00 +6°C° 0 mm 2 mps 742 mmHg 97%
    22:00 +6°C° 0 mm 2 mps 742 mmHg 97%
    23:00 +6°C° 0 mm 2 mps 742 mmHg 97%

    29 April, Monday

    Time Temperature Precipitation Wind Pressure Humidity
    00:00 +6°C° 0 mm 2 mps 742 mmHg 97%
    01:00 +6°C° 0.1 mm 2 mps 742 mmHg 97%
    02:00 +6°C° 0.1 mm 2 mps 742 mmHg 97%
    03:00 +6°C° 0.1 mm 2 mps 742 mmHg 97%
    04:00 +6°C° 0.1 mm 2 mps 742 mmHg 97%
    05:00 +6°C° 0.1 mm 2 mps 742 mmHg 96%
    06:00 +5°C° 0.1 mm 3 mps 742 mmHg 96%
    07:00 +7°C° 0.2 mm 3 mps 742 mmHg 95%
    08:00 +7°C° 0.2 mm 3 mps 742 mmHg 93%
    09:00 +8°C° 0.2 mm 3 mps 742 mmHg 92%
    10:00 +8°C° 0 mm 4 mps 742 mmHg 89%
    11:00 +8°C° 0 mm 4 mps 743 mmHg 87%
    12:00 +10°C° 0 mm 4 mps 743 mmHg 84%
    13:00 +10°C° 0 mm 4 mps 743 mmHg 81%
    14:00 +11°C° 0 mm 4 mps 743 mmHg 78%
    15:00 +11°C° 0 mm 4 mps 743 mmHg 75%
    16:00 +10°C° 0 mm 5 mps 743 mmHg 75%
    17:00 +9°C° 0 mm 5 mps 742 mmHg 75%
    18:00 +8°C° 0 mm 5 mps 742 mmHg 75%
    19:00 +6°C° 0 mm 4 mps 743 mmHg 80%
    20:00 +4°C° 0 mm 4 mps 743 mmHg 86%
    21:00 +2°C° 0 mm 3 mps 743 mmHg 91%
    22:00 +2°C° 0 mm 3 mps 743 mmHg 93%
    23:00 +2°C° 0 mm 3 mps 743 mmHg 94%
    Show more